OBJECT B, 68417

Orbit data source: Space-Track

You're viewing an Uncataloged Satellite

Recently launched and/or uncataloged satellites may have evolving metadata. Metadata may include but not limited to: Owner, Maufacturer, Bus, Motor, and Mission.

OBJECT B, 68417 is a satellite in SSO that was launched on Mon, 30 Mar 2026 UTC via an FALCON 9 launch vehicle from the Air Force Western Test Range (AFWTR). Unknown objects in Earth's orbit typically refer to objects detected orbiting the Earth but have not yet been identified or cataloged. These objects could be anything from previously untracked satellites, spent rocket stages, debris from satellite collisions, or even natural meteoroids temporarily captured by Earth's gravity.

Loading next visibility...
Identifier
68417, 2026-067B
Orbit
SSO
Country
Flag of TBDTBD
Related business
Manufacturer
COSMW
Mission
Operational spacecraft
Bus & Motor
CUBESAT 3U, Unknown motor
Mass
5 kg wet, 5 kg dry
Launch date (UTC)
2026-03-30 (1 month ago)
Launch vehicle
FALCON 9
Launch site
Air Force Western Test Range (AFWTR)
Object type
Unknown
Shape & HBR
Unknown shape, 1.1 m
Radar Cross Section
RCS unknown

Expand to show TLE details & history
Last TLE update: 9 hours ago

TLE from 9 hours ago
0 OBJECT B
1 68417U 26067B   26127.12469520  .00005311  00000-0  25782-3 0  9991
2 68417  97.4545  86.2480 0004004  77.1983 282.9699 15.18886937  5717
Epoch: 2026-05-07T02:59Z
TLE epoch observation values (Epoch: 2026-05-07T02:59:33.665Z)
Latitude
0.00003°
Longitude
176.38239°
Altitude
511.673 km
Speed
7.608 km/s
True Right ascension
05h 44m 59s
True Declination
0° 00' 00"
Sunlit
Object was in daylight at epoch
Visualization orbit readout
Latitude
Unknown
Longitude
Unknown
Altitude
Unknown
Speed
Unknown
Apparent Right ascension
Unknown
Apparent Declination
Unknown
Sunlit
N/A
Visualization observer readout
Local Sidereal Time
20:04:31
Azimuth
Unknown
Elevation
Unknown
Doppler factor
Unknown
Orbital elements
Apogee altitude
508.929 km
Perigee altitude
503.416 km
Semi-major axis
6,884.31 km
Eccentricity
0.0004
Inclination
97.4545°
RAAN
86.248°
Arg. of periapsis
77.1983°
True anomaly
282.92518°
Mean anomaly
282.9699°
Eccentric anomaly
282.94754°
Mean motion
3.79973 °/min
Orbital period
94.74 mins
BSTAR
0.00025782
Loading maneuver chart data...
Computing Atmospheric mass density...
Loading historical data...
Loading historical data...
Loading historical data...
Loading historical data...
Loading historical data...
Loading historical data...
Loading historical data...

Documentation

Showing up to 5 results
|